Time,TemperatureF,DewpointF,PressureIn,WindDirection,WindDirectionDegrees,WindSpeedMPH,WindSpeedGustMPH,Humidity,HourlyPrecipIn,Conditions,Clouds,dailyrainin,SoftwareType,DateUTC
2013-03-10 00:01:00,54.1,31.5,30.33,NE,52,6.0,9.0,42,0.00,,,0.00,meteohub,2013-03-10 08:01:00,
2013-03-10 00:07:00,54.9,31.6,30.32,ENE,61,7.0,10.0,41,0.00,,,0.00,meteohub,2013-03-10 08:07:00,
2013-03-10 00:12:00,55.2,31.3,30.32,ENE,59,8.0,10.0,40,0.00,,,0.00,meteohub,2013-03-10 08:12:00,
2013-03-10 00:17:00,55.8,32.4,30.32,NE,40,7.0,12.0,41,0.00,,,0.00,meteohub,2013-03-10 08:17:00,
2013-03-10 00:22:00,55.8,33.1,30.32,NNE,19,4.0,12.0,42,0.00,,,0.00,meteohub,2013-03-10 08:22:00,
2013-03-10 00:27:00,55.6,32.9,30.33,North,5,3.0,12.0,42,0.00,,,0.00,meteohub,2013-03-10 08:27:00,
2013-03-10 00:32:00,55.0,32.9,30.32,ENE,61,5.0,12.0,43,0.00,,,0.00,meteohub,2013-03-10 08:32:00,
2013-03-10 00:37:00,55.0,32.9,30.32,ENE,59,5.0,10.0,43,0.00,,,0.00,meteohub,2013-03-10 08:37:00,
2013-03-10 00:42:00,55.0,33.4,30.32,ENE,73,5.0,12.0,44,0.00,,,0.00,meteohub,2013-03-10 08:42:00,
2013-03-10 00:47:00,54.9,32.7,30.33,NE,42,6.0,12.0,43,0.00,,,0.00,meteohub,2013-03-10 08:47:00,
2013-03-10 00:52:00,54.9,32.7,30.33,North,350,2.0,12.0,43,0.00,,,0.00,meteohub,2013-03-10 08:52:00,
2013-03-10 00:57:00,54.7,32.0,30.33,NE,51,2.0,11.0,42,0.00,,,0.00,meteohub,2013-03-10 08:57:00,
2013-03-10 01:02:00,54.9,30.9,30.33,NNE,32,6.0,11.0,40,0.00,,,0.00,meteohub,2013-03-10 09:02:00,
2013-03-10 01:07:00,55.0,30.6,30.33,North,5,5.0,10.0,39,0.00,,,0.00,meteohub,2013-03-10 09:07:00,
2013-03-10 01:12:00,55.0,30.6,30.33,ENE,63,5.0,10.0,39,0.00,,,0.00,meteohub,2013-03-10 09:12:00,
2013-03-10 01:17:00,55.2,30.7,30.33,NNE,23,4.0,12.0,39,0.00,,,0.00,meteohub,2013-03-10 09:17:00,
2013-03-10 01:22:00,55.0,30.6,30.33,NNE,26,4.0,12.0,39,0.00,,,0.00,meteohub,2013-03-10 09:22:00,
2013-03-10 01:27:00,55.0,29.8,30.33,NE,53,5.0,12.0,38,0.00,,,0.00,meteohub,2013-03-10 09:27:00,
2013-03-10 01:32:00,55.0,30.6,30.34,ENE,65,10.0,14.0,39,0.00,,,0.00,meteohub,2013-03-10 09:32:00,
2013-03-10 01:37:00,55.0,29.8,30.33,NNE,13,6.0,14.0,38,0.00,,,0.00,meteohub,2013-03-10 09:37:00,
2013-03-10 01:42:00,55.2,30.0,30.33,NNE,30,6.0,14.0,38,0.00,,,0.00,meteohub,2013-03-10 09:42:00,
2013-03-10 01:47:00,55.2,29.5,30.33,NNE,24,8.0,14.0,37,0.00,,,0.00,meteohub,2013-03-10 09:47:00,
2013-03-10 01:52:00,55.4,28.9,30.33,NE,47,8.0,15.0,36,0.00,,,0.00,meteohub,2013-03-10 09:52:00,
2013-03-10 01:57:00,55.6,29.1,30.33,NE,44,9.0,16.0,36,0.00,,,0.00,meteohub,2013-03-10 09:57:00,
2013-03-10 03:02:00,55.6,29.1,30.33,NE,51,8.0,-999.0,36,-99.99,,,0.00,meteohub,2013-03-10 10:02:00,
2013-03-10 03:06:00,55.4,28.9,30.33,NE,43,6.0,-999.0,36,-99.99,,,0.00,meteohub,2013-03-10 10:06:00,
2013-03-10 03:12:00,55.2,28.0,30.33,NE,50,10.0,-999.0,35,-99.99,,,0.00,meteohub,2013-03-10 10:12:00,
2013-03-10 03:17:00,55.2,28.0,30.33,NE,49,10.0,-999.0,35,-99.99,,,0.00,meteohub,2013-03-10 10:17:00,
2013-03-10 03:22:00,55.0,27.9,30.33,NE,46,10.0,-999.0,35,-99.99,,,0.00,meteohub,2013-03-10 10:22:00,
2013-03-10 03:27:00,55.0,27.9,30.32,ENE,63,10.0,-999.0,35,-99.99,,,0.00,meteohub,2013-03-10 10:27:00,
2013-03-10 03:32:00,55.2,27.3,30.32,ENE,63,11.0,-999.0,34,-99.99,,,0.00,meteohub,2013-03-10 10:32:00,
2013-03-10 03:37:00,55.2,27.3,30.32,NE,48,9.0,-999.0,34,-99.99,,,0.00,meteohub,2013-03-10 10:37:00,
2013-03-10 03:42:00,55.0,26.4,30.32,NE,46,8.0,-999.0,33,-99.99,,,0.00,meteohub,2013-03-10 10:42:00,
2013-03-10 03:47:00,55.0,26.4,30.32,NE,47,9.0,-999.0,33,-99.99,,,0.00,meteohub,2013-03-10 10:47:00,
2013-03-10 03:52:00,55.0,26.4,30.32,NE,47,8.0,-999.0,33,-99.99,,,0.00,meteohub,2013-03-10 10:52:00,
2013-03-10 03:57:00,55.0,25.7,30.31,NE,49,10.0,-999.0,32,-99.99,,,0.00,meteohub,2013-03-10 10:57:00,
2013-03-10 04:02:00,55.2,26.6,30.32,NNE,30,8.0,-999.0,33,-99.99,,,0.00,meteohub,2013-03-10 11:02:00,
2013-03-10 04:07:00,55.0,25.7,30.31,NE,35,8.0,-999.0,32,-99.99,,,0.00,meteohub,2013-03-10 11:07:00,
2013-03-10 04:12:00,54.9,26.2,30.31,NNE,19,9.0,-999.0,33,-99.99,,,0.00,meteohub,2013-03-10 11:12:00,
2013-03-10 04:17:00,55.0,25.7,30.31,NNE,20,6.0,-999.0,32,-99.99,,,0.00,meteohub,2013-03-10 11:17:00,
2013-03-10 04:22:00,55.0,25.7,30.31,NE,54,10.0,-999.0,32,-99.99,,,0.00,meteohub,2013-03-10 11:22:00,
2013-03-10 04:27:00,55.0,25.0,30.31,NE,50,11.0,-999.0,31,-99.99,,,0.00,meteohub,2013-03-10 11:27:00,
2013-03-10 04:32:00,55.0,25.0,30.31,NNE,15,8.0,-999.0,31,-99.99,,,0.00,meteohub,2013-03-10 11:32:00,
2013-03-10 04:37:00,55.0,24.1,30.31,NNE,12,8.0,-999.0,30,-99.99,,,0.00,meteohub,2013-03-10 11:37:00,
2013-03-10 04:42:00,55.0,24.1,30.31,NE,34,9.0,-999.0,30,-99.99,,,0.00,meteohub,2013-03-10 11:42:00,
2013-03-10 04:47:00,55.0,24.1,30.31,NE,46,9.0,-999.0,30,-99.99,,,0.00,meteohub,2013-03-10 11:47:00,
2013-03-10 04:52:00,54.9,24.8,30.31,NE,36,7.0,-999.0,31,-99.99,,,0.00,meteohub,2013-03-10 11:52:00,
2013-03-10 04:57:00,54.7,25.3,30.32,NNE,23,7.0,-999.0,32,-99.99,,,0.00,meteohub,2013-03-10 11:57:00,
2013-03-10 05:02:00,54.5,25.2,30.31,NNE,33,4.0,-999.0,32,-99.99,,,0.00,meteohub,2013-03-10 12:02:00,
2013-03-10 05:07:00,54.7,24.6,30.32,NE,38,8.0,-999.0,31,-99.99,,,0.00,meteohub,2013-03-10 12:07:00,
2013-03-10 05:12:00,54.7,23.9,30.31,NE,53,9.0,-999.0,30,-99.99,,,0.00,meteohub,2013-03-10 12:12:00,
2013-03-10 05:16:00,54.9,23.2,30.31,ENE,57,12.0,-999.0,29,-99.99,,,0.00,meteohub,2013-03-10 12:16:00,
2013-03-10 05:22:00,54.9,23.2,30.31,NE,37,7.0,-999.0,29,-99.99,,,0.00,meteohub,2013-03-10 12:22:00,
2013-03-10 05:27:00,55.0,23.4,30.31,NE,49,9.0,-999.0,29,-99.99,,,0.00,meteohub,2013-03-10 12:27:00,
2013-03-10 05:32:00,55.0,23.4,30.31,ENE,72,11.0,-999.0,29,-99.99,,,0.00,meteohub,2013-03-10 12:32:00,
2013-03-10 05:37:00,55.2,24.3,30.31,NNE,26,14.0,-999.0,30,-99.99,,,0.00,meteohub,2013-03-10 12:37:00,
2013-03-10 05:42:00,55.2,24.3,30.31,NE,50,12.0,-999.0,30,-99.99,,,0.00,meteohub,2013-03-10 12:42:00,
2013-03-10 05:47:00,55.2,23.5,30.31,NNE,30,10.0,-999.0,29,-99.99,,,0.00,meteohub,2013-03-10 12:47:00,
2013-03-10 05:52:00,55.2,23.5,30.31,NE,52,10.0,-999.0,29,-99.99,,,0.00,meteohub,2013-03-10 12:52:00,
2013-03-10 05:57:00,55.2,24.3,30.32,NNE,30,10.0,-999.0,30,-99.99,,,0.00,meteohub,2013-03-10 12:57:00,
2013-03-10 06:02:00,55.0,24.1,30.31,NE,40,9.0,-999.0,30,-99.99,,,0.00,meteohub,2013-03-10 13:02:00,
2013-03-10 06:07:00,55.0,24.1,30.31,NE,44,12.0,-999.0,30,-99.99,,,0.00,meteohub,2013-03-10 13:07:00,
2013-03-10 06:12:00,55.0,23.4,30.31,NE,34,10.0,-999.0,29,-99.99,,,0.00,meteohub,2013-03-10 13:12:00,
2013-03-10 06:17:00,55.0,24.1,30.31,NE,38,9.0,-999.0,30,-99.99,,,0.00,meteohub,2013-03-10 13:17:00,
2013-03-10 06:22:00,55.0,23.4,30.31,ENE,61,11.0,-999.0,29,-99.99,,,0.00,meteohub,2013-03-10 13:22:00,
2013-03-10 06:27:00,55.0,23.4,30.31,ENE,63,11.0,-999.0,29,-99.99,,,0.00,meteohub,2013-03-10 13:27:00,
2013-03-10 06:32:00,54.9,24.1,30.32,NE,40,9.0,-999.0,30,-99.99,,,0.00,meteohub,2013-03-10 13:32:00,
2013-03-10 06:37:00,54.9,24.1,30.32,NE,53,7.0,-999.0,30,-99.99,,,0.00,meteohub,2013-03-10 13:37:00,
2013-03-10 06:42:00,54.5,23.7,30.32,NNE,28,11.0,-999.0,30,-99.99,,,0.00,meteohub,2013-03-10 13:42:00,
2013-03-10 06:47:00,54.3,24.3,30.32,NE,48,6.0,-999.0,31,-99.99,,,0.00,meteohub,2013-03-10 13:47:00,
2013-03-10 06:52:00,54.1,24.1,30.32,NE,38,9.0,-999.0,31,-99.99,,,0.00,meteohub,2013-03-10 13:52:00,
2013-03-10 06:57:00,54.0,24.1,30.32,NE,40,7.0,-999.0,31,-99.99,,,0.00,meteohub,2013-03-10 13:57:00,
2013-03-10 07:02:00,54.0,24.1,30.32,North,5,7.0,-999.0,31,-99.99,,,0.00,meteohub,2013-03-10 14:02:00,
2013-03-10 07:07:00,53.8,23.9,30.32,NE,51,6.0,-999.0,31,-99.99,,,0.00,meteohub,2013-03-10 14:07:00,
2013-03-10 07:12:00,53.6,23.7,30.32,NE,49,6.0,-999.0,31,-99.99,,,0.00,meteohub,2013-03-10 14:12:00,
2013-03-10 07:17:00,53.6,23.7,30.32,NE,53,9.0,-999.0,31,-99.99,,,0.00,meteohub,2013-03-10 14:17:00,
2013-03-10 07:22:00,53.4,23.5,30.32,NNE,23,10.0,-999.0,31,-99.99,,,0.00,meteohub,2013-03-10 14:22:00,
2013-03-10 07:27:00,53.6,23.7,30.32,NE,46,11.0,-999.0,31,-99.99,,,0.00,meteohub,2013-03-10 14:27:00,
2013-03-10 07:32:00,53.8,23.9,30.32,North,10,5.0,-999.0,31,-99.99,,,0.00,meteohub,2013-03-10 14:32:00,
2013-03-10 07:37:00,53.6,24.4,30.33,NNE,13,5.0,-999.0,32,-99.99,,,0.00,meteohub,2013-03-10 14:37:00,
2013-03-10 07:41:00,53.4,24.3,30.32,NNE,15,9.0,-999.0,32,-99.99,,,0.00,meteohub,2013-03-10 14:41:00,
2013-03-10 07:46:00,53.4,23.5,30.32,NE,39,13.0,-999.0,31,-99.99,,,0.00,meteohub,2013-03-10 14:46:00,
2013-03-10 07:51:00,53.6,23.7,30.32,NE,53,10.0,-999.0,31,-99.99,,,0.00,meteohub,2013-03-10 14:51:00,
2013-03-10 07:56:00,53.6,23.7,30.33,NE,40,7.0,-999.0,31,-99.99,,,0.00,meteohub,2013-03-10 14:56:00,
2013-03-10 08:01:00,53.6,24.4,30.33,ENE,57,9.0,-999.0,32,-99.99,,,0.00,meteohub,2013-03-10 15:01:00,
2013-03-10 08:06:00,53.4,24.3,30.33,NE,37,5.0,-999.0,32,-99.99,,,0.00,meteohub,2013-03-10 15:06:00,
2013-03-10 08:11:00,53.6,23.7,30.34,NE,51,9.0,-999.0,31,-99.99,,,0.00,meteohub,2013-03-10 15:11:00,
2013-03-10 08:16:00,53.6,23.7,30.34,NNE,33,4.0,-999.0,31,-99.99,,,0.00,meteohub,2013-03-10 15:16:00,
2013-03-10 08:22:00,53.4,25.0,30.34,East,80,7.0,-999.0,33,-99.99,,,0.00,meteohub,2013-03-10 15:22:00,
2013-03-10 08:27:00,53.4,25.0,30.34,North,0,8.0,-999.0,33,-99.99,,,0.00,meteohub,2013-03-10 15:27:00,
2013-03-10 08:32:00,53.4,25.0,30.35,NE,55,6.0,-999.0,33,-99.99,,,0.00,meteohub,2013-03-10 15:32:00,
2013-03-10 08:37:00,53.4,25.0,30.34,NE,44,11.0,-999.0,33,-99.99,,,0.00,meteohub,2013-03-10 15:37:00,
2013-03-10 08:42:00,53.6,25.2,30.34,NNE,22,7.0,-999.0,33,-99.99,,,0.00,meteohub,2013-03-10 15:42:00,
2013-03-10 08:47:00,53.6,25.2,30.34,NE,48,8.0,-999.0,33,-99.99,,,0.00,meteohub,2013-03-10 15:47:00,
2013-03-10 08:52:00,53.6,25.2,30.34,NNE,24,13.0,-999.0,33,-99.99,,,0.00,meteohub,2013-03-10 15:52:00,
2013-03-10 08:57:00,53.8,25.3,30.34,NNE,16,6.0,-999.0,33,-99.99,,,0.00,meteohub,2013-03-10 15:57:00,
2013-03-10 09:02:00,53.8,25.3,30.35,NE,56,8.0,-999.0,33,-99.99,,,0.00,meteohub,2013-03-10 16:02:00,
2013-03-10 09:07:00,53.8,25.3,30.35,NE,56,7.0,-999.0,33,-99.99,,,0.00,meteohub,2013-03-10 16:07:00,
2013-03-10 09:12:00,54.0,25.5,30.35,NE,47,7.0,-999.0,33,-99.99,,,0.00,meteohub,2013-03-10 16:12:00,
2013-03-10 09:17:00,54.1,25.7,30.35,NE,46,5.0,-999.0,33,-99.99,,,0.00,meteohub,2013-03-10 16:17:00,
2013-03-10 09:22:00,54.1,25.0,30.35,NE,46,7.0,-999.0,32,-99.99,,,0.00,meteohub,2013-03-10 16:22:00,
2013-03-10 09:27:00,54.3,25.2,30.35,NNE,20,5.0,-999.0,32,-99.99,,,0.00,meteohub,2013-03-10 16:27:00,
2013-03-10 09:32:00,54.7,25.3,30.35,East,83,2.0,-999.0,32,-99.99,,,0.00,meteohub,2013-03-10 16:32:00,
2013-03-10 09:37:00,54.9,25.5,30.35,NNE,24,4.0,-999.0,32,-99.99,,,0.00,meteohub,2013-03-10 16:37:00,
2013-03-10 09:42:00,54.9,24.8,30.35,ENE,59,12.0,-999.0,31,-99.99,,,0.00,meteohub,2013-03-10 16:42:00,
2013-03-10 09:47:00,55.0,25.7,30.34,NE,49,3.0,-999.0,32,-99.99,,,0.00,meteohub,2013-03-10 16:47:00,
2013-03-10 09:52:00,55.2,25.2,30.34,NNW,348,6.0,-999.0,31,-99.99,,,0.00,meteohub,2013-03-10 16:52:00,
2013-03-10 09:57:00,55.6,27.7,30.34,ENE,58,12.0,-999.0,34,-99.99,,,0.00,meteohub,2013-03-10 16:57:00,
2013-03-10 10:02:00,55.8,25.5,30.34,ENE,60,8.0,-999.0,31,-99.99,,,0.00,meteohub,2013-03-10 17:02:00,
2013-03-10 10:07:00,55.6,27.0,30.35,North,5,6.0,-999.0,33,-99.99,,,0.00,meteohub,2013-03-10 17:07:00,
2013-03-10 10:12:00,55.8,26.4,30.35,ENE,63,7.0,-999.0,32,-99.99,,,0.00,meteohub,2013-03-10 17:12:00,
2013-03-10 10:17:00,55.9,25.7,30.34,NE,45,7.0,17.0,31,-99.99,,,0.00,meteohub,2013-03-10 17:17:00,
2013-03-10 10:22:00,56.1,28.0,30.34,NW,325,5.0,17.0,34,-99.99,,,0.00,meteohub,2013-03-10 17:22:00,
2013-03-10 10:27:00,56.1,26.6,30.34,NNW,345,9.0,17.0,32,-99.99,,,0.00,meteohub,2013-03-10 17:27:00,
2013-03-10 10:32:00,56.5,26.2,30.34,NE,45,14.0,14.0,31,-99.99,,,0.00,meteohub,2013-03-10 17:32:00,
2013-03-10 10:37:00,56.7,26.4,30.34,NE,36,7.0,16.0,31,-99.99,,,0.00,meteohub,2013-03-10 17:37:00,
2013-03-10 10:42:00,56.8,26.6,30.34,NE,48,6.0,16.0,31,-99.99,,,0.00,meteohub,2013-03-10 17:42:00,
2013-03-10 10:47:00,57.4,27.0,30.34,NNE,25,5.0,16.0,31,-99.99,,,0.00,meteohub,2013-03-10 17:47:00,
2013-03-10 10:52:00,57.7,27.3,30.34,NNE,14,11.0,14.0,31,-99.99,,,0.00,meteohub,2013-03-10 17:52:00,
2013-03-10 10:57:00,57.9,26.6,30.34,NNE,17,7.0,14.0,30,-99.99,,,0.00,meteohub,2013-03-10 17:57:00,
2013-03-10 11:02:00,58.1,27.7,30.34,NNE,23,10.0,14.0,31,0.00,,,0.00,meteohub,2013-03-10 18:02:00,
2013-03-10 11:07:00,58.3,25.3,30.33,NNE,22,6.0,14.0,28,0.00,,,0.00,meteohub,2013-03-10 18:07:00,
2013-03-10 11:12:00,58.5,27.9,30.34,NE,45,7.0,14.0,31,0.00,,,0.00,meteohub,2013-03-10 18:12:00,
2013-03-10 11:17:00,58.5,27.1,30.34,North,0,6.0,14.0,30,0.00,,,0.00,meteohub,2013-03-10 18:17:00,
2013-03-10 11:22:00,58.8,28.9,30.34,NW,317,6.0,14.0,32,0.00,,,0.00,meteohub,2013-03-10 18:22:00,
2013-03-10 11:27:00,59.0,29.1,30.34,NNW,336,1.0,12.0,32,0.00,,,0.00,meteohub,2013-03-10 18:27:00,
2013-03-10 11:32:00,59.2,27.7,30.33,NE,40,6.0,12.0,30,0.00,,,0.00,meteohub,2013-03-10 18:32:00,
2013-03-10 11:37:00,59.0,28.4,30.33,ENE,77,5.0,14.0,31,0.00,,,0.00,meteohub,2013-03-10 18:37:00,
2013-03-10 11:42:00,59.4,30.9,30.34,NE,40,7.0,14.0,34,0.00,,,0.00,meteohub,2013-03-10 18:42:00,
2013-03-10 11:47:00,59.5,29.7,30.33,NE,40,8.0,14.0,32,0.00,,,0.00,meteohub,2013-03-10 18:47:00,
2013-03-10 11:52:00,59.4,31.6,30.33,NE,41,5.0,13.0,35,0.00,,,0.00,meteohub,2013-03-10 18:52:00,
2013-03-10 11:57:00,59.7,30.6,30.33,NNE,27,11.0,13.0,33,0.00,,,0.00,meteohub,2013-03-10 18:57:00,
2013-03-10 12:02:00,60.3,31.1,30.32,NNE,22,5.0,13.0,33,0.00,,,0.00,meteohub,2013-03-10 19:02:00,
2013-03-10 12:07:00,60.6,28.9,30.32,North,5,8.0,12.0,30,0.00,,,0.00,meteohub,2013-03-10 19:07:00,
2013-03-10 12:12:00,60.6,28.9,30.32,NNE,17,6.0,13.0,30,0.00,,,0.00,meteohub,2013-03-10 19:12:00,
2013-03-10 12:17:00,60.8,28.4,30.32,North,0,3.0,13.0,29,0.00,,,0.00,meteohub,2013-03-10 19:17:00,
2013-03-10 12:22:00,60.6,30.6,30.32,NNE,18,4.0,13.0,32,0.00,,,0.00,meteohub,2013-03-10 19:22:00,
2013-03-10 12:27:00,60.8,29.1,30.32,NW,317,4.0,13.0,30,0.00,,,0.00,meteohub,2013-03-10 19:27:00,
2013-03-10 12:32:00,61.0,29.3,30.32,NNE,28,5.0,12.0,30,0.00,,,0.00,meteohub,2013-03-10 19:32:00,
2013-03-10 12:37:00,61.2,30.2,30.32,North,355,3.0,12.0,31,0.00,,,0.00,meteohub,2013-03-10 19:37:00,
2013-03-10 12:42:00,61.9,30.9,30.32,NW,309,5.0,11.0,31,0.00,,,0.00,meteohub,2013-03-10 19:42:00,
2013-03-10 12:47:00,62.1,31.1,30.32,ENE,57,5.0,11.0,31,0.00,,,0.00,meteohub,2013-03-10 19:47:00,
2013-03-10 12:52:00,62.2,30.4,30.32,NW,308,3.0,11.0,30,0.00,,,0.00,meteohub,2013-03-10 19:52:00,
2013-03-10 12:57:00,62.6,31.5,30.32,NW,307,4.0,11.0,31,0.00,,,0.00,meteohub,2013-03-10 19:57:00,
2013-03-10 13:02:00,62.8,32.5,30.32,NW,320,3.0,9.0,32,0.00,,,0.00,meteohub,2013-03-10 20:02:00,
2013-03-10 13:07:00,63.1,32.0,30.32,NW,312,8.0,10.0,31,0.00,,,0.00,meteohub,2013-03-10 20:07:00,
2013-03-10 13:12:00,63.3,30.6,30.32,ENE,67,5.0,10.0,29,0.00,,,0.00,meteohub,2013-03-10 20:12:00,
2013-03-10 13:18:00,63.5,30.7,30.31,WNW,290,0.0,10.0,29,0.00,,,0.00,meteohub,2013-03-10 20:18:00,
2013-03-10 13:23:00,63.7,30.7,30.31,NE,48,4.0,9.0,29,0.00,,,0.00,meteohub,2013-03-10 20:23:00,
2013-03-10 13:28:00,63.5,33.8,30.30,ENE,61,5.0,10.0,33,0.00,,,0.00,meteohub,2013-03-10 20:28:00,
2013-03-10 13:33:00,63.3,31.3,30.30,North,5,4.0,10.0,30,0.00,,,0.00,meteohub,2013-03-10 20:33:00,
2013-03-10 13:38:00,63.9,30.9,30.30,ENE,59,3.0,10.0,29,0.00,,,0.00,meteohub,2013-03-10 20:38:00,
2013-03-10 13:43:00,64.0,30.2,30.30,ENE,64,4.0,10.0,28,0.00,,,0.00,meteohub,2013-03-10 20:43:00,
2013-03-10 13:48:00,64.6,32.4,30.30,NNW,330,2.0,11.0,30,0.00,,,0.00,meteohub,2013-03-10 20:48:00,
2013-03-10 13:53:00,64.8,28.0,30.29,NE,50,5.0,11.0,25,0.00,,,0.00,meteohub,2013-03-10 20:53:00,
2013-03-10 13:58:00,64.9,28.2,30.29,ENE,70,2.0,11.0,25,0.00,,,0.00,meteohub,2013-03-10 20:58:00,
2013-03-10 14:03:00,65.3,29.5,30.29,East,97,1.0,9.0,26,0.00,,,0.00,meteohub,2013-03-10 21:03:00,
2013-03-10 14:08:00,65.8,28.9,30.29,ENE,63,7.0,9.0,25,0.00,,,0.00,meteohub,2013-03-10 21:08:00,
2013-03-10 14:13:00,65.5,29.7,30.29,ENE,70,0.0,10.0,26,0.00,,,0.00,meteohub,2013-03-10 21:13:00,
2013-03-10 14:18:00,65.8,33.6,30.29,SSW,200,3.0,10.0,30,0.00,,,0.00,meteohub,2013-03-10 21:18:00,
2013-03-10 14:23:00,66.4,35.6,30.29,West,279,9.0,10.0,32,0.00,,,0.00,meteohub,2013-03-10 21:23:00,
2013-03-10 14:28:00,66.6,32.4,30.29,NW,304,4.0,10.0,28,0.00,,,0.00,meteohub,2013-03-10 21:28:00,
2013-03-10 14:33:00,66.4,34.0,30.28,WSW,248,5.0,10.0,30,0.00,,,0.00,meteohub,2013-03-10 21:33:00,
2013-03-10 14:38:00,66.7,34.3,30.28,SW,224,4.0,10.0,30,0.00,,,0.00,meteohub,2013-03-10 21:38:00,
2013-03-10 14:43:00,67.3,34.0,30.28,SW,218,7.0,8.0,29,0.00,,,0.00,meteohub,2013-03-10 21:43:00,
2013-03-10 14:48:00,67.3,34.0,30.28,West,269,4.0,9.0,29,0.00,,,0.00,meteohub,2013-03-10 21:48:00,
2013-03-10 14:53:00,67.1,32.9,30.28,WSW,255,5.0,9.0,28,0.00,,,0.00,meteohub,2013-03-10 21:53:00,
2013-03-10 14:58:00,67.3,34.0,30.28,SW,223,4.0,9.0,29,0.00,,,0.00,meteohub,2013-03-10 21:58:00,
2013-03-10 15:03:00,67.3,33.1,30.28,South,174,3.0,8.0,28,0.00,,,0.00,meteohub,2013-03-10 22:03:00,
2013-03-10 15:08:00,67.5,34.2,30.28,SW,234,2.0,9.0,29,0.00,,,0.00,meteohub,2013-03-10 22:08:00,
2013-03-10 15:13:00,67.5,36.5,30.28,West,259,3.0,9.0,32,0.00,,,0.00,meteohub,2013-03-10 22:13:00,
2013-03-10 15:18:00,67.5,37.4,30.27,West,263,5.0,9.0,33,0.00,,,0.00,meteohub,2013-03-10 22:18:00,
2013-03-10 15:24:00,67.5,39.6,30.28,WSW,239,4.0,9.0,36,0.00,,,0.00,meteohub,2013-03-10 22:24:00,
2013-03-10 15:29:00,67.3,37.9,30.28,WSW,238,3.0,9.0,34,0.00,,,0.00,meteohub,2013-03-10 22:29:00,
2013-03-10 15:34:00,67.3,37.2,30.28,SE,128,1.0,9.0,33,0.00,,,0.00,meteohub,2013-03-10 22:34:00,
2013-03-10 15:39:00,67.3,40.1,30.28,South,178,4.0,7.0,37,0.00,,,0.00,meteohub,2013-03-10 22:39:00,
2013-03-10 15:44:00,67.5,41.7,30.28,SSW,195,7.0,12.0,39,0.00,,,0.00,meteohub,2013-03-10 22:44:00,
2013-03-10 15:49:00,67.5,41.0,30.28,WSW,240,5.0,12.0,38,0.00,,,0.00,meteohub,2013-03-10 22:49:00,
2013-03-10 15:54:00,67.3,41.5,30.28,South,190,3.0,12.0,39,0.00,,,0.00,meteohub,2013-03-10 22:54:00,
2013-03-10 15:59:00,66.9,41.2,30.27,SSW,211,6.0,11.0,39,0.00,,,0.00,meteohub,2013-03-10 22:59:00,
2013-03-10 16:04:00,66.6,41.5,30.27,SSW,205,5.0,11.0,40,0.00,,,0.00,meteohub,2013-03-10 23:04:00,
2013-03-10 16:09:00,66.6,40.8,30.27,SSE,168,7.0,10.0,39,0.00,,,0.00,meteohub,2013-03-10 23:09:00,
2013-03-10 16:14:00,66.6,42.1,30.27,South,176,8.0,10.0,41,0.00,,,0.00,meteohub,2013-03-10 23:14:00,
2013-03-10 16:19:00,66.4,41.4,30.27,South,183,5.0,9.0,40,0.00,,,0.00,meteohub,2013-03-10 23:19:00,
2013-03-10 16:24:00,66.4,41.4,30.27,SW,230,3.0,9.0,40,0.00,,,0.00,meteohub,2013-03-10 23:24:00,
2013-03-10 16:29:00,66.6,41.5,30.27,WSW,246,4.0,9.0,40,0.00,,,0.00,meteohub,2013-03-10 23:29:00,
2013-03-10 16:34:00,66.4,41.9,30.27,WSW,242,6.0,9.0,41,0.00,,,0.00,meteohub,2013-03-10 23:34:00,
2013-03-10 16:39:00,66.2,41.2,30.27,SSW,206,3.0,9.0,40,0.00,,,0.00,meteohub,2013-03-10 23:39:00,
2013-03-10 16:44:00,66.2,42.4,30.27,West,262,5.0,9.0,42,0.00,,,0.00,meteohub,2013-03-10 23:44:00,
2013-03-10 16:49:00,66.2,43.0,30.27,SW,226,4.0,7.0,43,0.00,,,0.00,meteohub,2013-03-10 23:49:00,
2013-03-10 16:54:00,66.0,42.3,30.27,SSW,208,8.0,8.0,42,0.00,,,0.00,meteohub,2013-03-10 23:54:00,
2013-03-10 16:59:00,65.8,42.8,30.27,WSW,244,3.0,9.0,43,0.00,,,0.00,meteohub,2013-03-10 23:59:00,
2013-03-10 17:04:00,65.8,43.3,30.26,SW,228,8.0,9.0,44,0.00,,,0.00,meteohub,2013-03-11 00:04:00,
2013-03-10 17:09:00,65.7,43.2,30.26,SSW,198,2.0,9.0,44,0.00,,,0.00,meteohub,2013-03-11 00:09:00,
2013-03-10 17:14:00,65.7,43.2,30.26,SW,219,3.0,9.0,44,0.00,,,0.00,meteohub,2013-03-11 00:14:00,
2013-03-10 17:19:00,65.5,43.5,30.26,WSW,242,5.0,9.0,45,0.00,,,0.00,meteohub,2013-03-11 00:19:00,
2013-03-10 17:24:00,64.9,43.2,30.26,SSW,195,8.0,9.0,45,0.00,,,0.00,meteohub,2013-03-11 00:24:00,
2013-03-10 17:29:00,64.8,43.0,30.26,South,190,3.0,9.0,45,0.00,,,0.00,meteohub,2013-03-11 00:29:00,
2013-03-10 17:34:00,64.6,42.8,30.25,ESE,118,4.0,9.0,45,0.00,,,0.00,meteohub,2013-03-11 00:34:00,
2013-03-10 17:39:00,64.4,43.2,30.25,West,269,4.0,9.0,46,0.00,,,0.00,meteohub,2013-03-11 00:39:00,
2013-03-10 17:44:00,64.2,42.4,30.25,SSW,213,4.0,7.0,45,0.00,,,0.00,meteohub,2013-03-11 00:44:00,
2013-03-10 17:49:00,64.0,42.3,30.25,SW,229,4.0,7.0,45,0.00,,,0.00,meteohub,2013-03-11 00:49:00,
2013-03-10 17:54:00,63.9,43.2,30.25,SSW,205,3.0,7.0,47,0.00,,,0.00,meteohub,2013-03-11 00:54:00,
2013-03-10 18:00:00,63.7,41.9,30.25,WSW,257,5.0,7.0,45,0.00,,,0.00,meteohub,2013-03-11 01:00:00,
2013-03-10 18:05:00,63.3,41.5,30.25,WSW,241,2.0,7.0,45,0.00,,,0.00,meteohub,2013-03-11 01:05:00,
2013-03-10 18:10:00,63.1,42.6,30.25,WSW,252,4.0,8.0,47,0.00,,,0.00,meteohub,2013-03-11 01:10:00,
2013-03-10 18:15:00,63.0,41.9,30.25,SSW,213,3.0,8.0,46,0.00,,,0.00,meteohub,2013-03-11 01:15:00,
2013-03-10 18:20:00,62.8,41.7,30.25,SW,233,3.0,8.0,46,0.00,,,0.00,meteohub,2013-03-11 01:20:00,
2013-03-10 18:25:00,62.4,41.9,30.25,SSW,211,4.0,8.0,47,0.00,,,0.00,meteohub,2013-03-11 01:25:00,
2013-03-10 18:30:00,62.1,41.5,30.25,SW,219,4.0,7.0,47,0.00,,,0.00,meteohub,2013-03-11 01:30:00,
2013-03-10 18:35:00,61.9,41.9,30.26,SSW,199,4.0,7.0,48,0.00,,,0.00,meteohub,2013-03-11 01:35:00,
2013-03-10 18:40:00,61.3,41.5,30.26,SSW,212,4.0,7.0,48,0.00,,,0.00,meteohub,2013-03-11 01:40:00,
2013-03-10 18:45:00,61.0,40.6,30.26,SW,228,5.0,7.0,47,0.00,,,0.00,meteohub,2013-03-11 01:45:00,
2013-03-10 18:50:00,60.4,40.6,30.26,SSW,198,4.0,7.0,48,0.00,,,0.00,meteohub,2013-03-11 01:50:00,
2013-03-10 18:55:00,60.1,40.8,30.26,SSW,213,3.0,7.0,49,0.00,,,0.00,meteohub,2013-03-11 01:55:00,
2013-03-10 19:00:00,59.4,40.3,30.26,SW,216,4.0,7.0,49,0.00,,,0.00,meteohub,2013-03-11 02:00:00,
2013-03-10 19:05:00,58.8,40.3,30.26,SSW,211,2.0,7.0,50,0.00,,,0.00,meteohub,2013-03-11 02:05:00,
2013-03-10 19:10:00,58.3,40.3,30.26,SSW,211,2.0,7.0,51,0.00,,,0.00,meteohub,2013-03-11 02:10:00,
2013-03-10 19:15:00,57.7,40.6,30.26,SSW,212,2.0,7.0,53,0.00,,,0.00,meteohub,2013-03-11 02:15:00,
2013-03-10 19:20:00,56.8,40.5,30.26,SSW,212,3.0,5.0,54,0.00,,,0.00,meteohub,2013-03-11 02:20:00,
2013-03-10 19:25:00,56.1,39.2,30.26,SSW,212,3.0,4.0,53,0.00,,,0.00,meteohub,2013-03-11 02:25:00,
2013-03-10 19:30:00,55.8,39.4,30.27,SSW,212,2.0,4.0,54,0.00,,,0.00,meteohub,2013-03-11 02:30:00,
2013-03-10 19:35:00,55.0,39.2,30.27,SSW,212,2.0,4.0,55,0.00,,,0.00,meteohub,2013-03-11 02:35:00,
2013-03-10 19:40:00,54.3,38.5,30.27,SSW,211,3.0,4.0,55,0.00,,,0.00,meteohub,2013-03-11 02:40:00,
2013-03-10 19:45:00,54.1,38.8,30.27,SSW,210,4.0,4.0,56,0.00,,,0.00,meteohub,2013-03-11 02:45:00,
2013-03-10 19:50:00,54.0,38.7,30.27,SSW,192,3.0,5.0,56,0.00,,,0.00,meteohub,2013-03-11 02:50:00,
2013-03-10 19:55:00,53.6,38.7,30.27,SSW,192,4.0,5.0,57,0.00,,,0.00,meteohub,2013-03-11 02:55:00,
2013-03-10 20:00:00,53.4,38.5,30.27,SSW,192,3.0,5.0,57,0.00,,,0.00,meteohub,2013-03-11 03:00:00,
2013-03-10 20:05:00,53.4,38.5,30.27,SSW,192,2.0,4.0,57,0.00,,,0.00,meteohub,2013-03-11 03:05:00,
2013-03-10 20:10:00,53.4,38.5,30.26,South,180,3.0,4.0,57,0.00,,,0.00,meteohub,2013-03-11 03:10:00,
2013-03-10 20:15:00,53.4,38.5,30.26,South,180,3.0,4.0,57,0.00,,,0.00,meteohub,2013-03-11 03:15:00,
2013-03-10 20:20:00,53.4,38.5,30.26,South,180,4.0,4.0,57,0.00,,,0.00,meteohub,2013-03-11 03:20:00,
2013-03-10 20:25:00,53.4,38.1,30.26,South,169,3.0,5.0,56,0.00,,,0.00,meteohub,2013-03-11 03:25:00,
2013-03-10 20:30:00,53.4,38.1,30.26,South,169,3.0,5.0,56,0.00,,,0.00,meteohub,2013-03-11 03:30:00,
2013-03-10 20:35:00,53.2,38.5,30.26,South,169,3.0,5.0,57,0.00,,,0.00,meteohub,2013-03-11 03:35:00,
2013-03-10 20:40:00,53.1,38.3,30.26,South,169,2.0,4.0,57,0.00,,,0.00,meteohub,2013-03-11 03:40:00,
2013-03-10 20:45:00,52.9,38.1,30.26,South,169,2.0,4.0,57,0.00,,,0.00,meteohub,2013-03-11 03:45:00,
2013-03-10 20:50:00,52.5,38.1,30.26,South,169,2.0,4.0,58,0.00,,,0.00,meteohub,2013-03-11 03:50:00,
2013-03-10 20:55:00,52.3,37.6,30.26,South,169,4.0,4.0,57,0.00,,,0.00,meteohub,2013-03-11 03:55:00,
2013-03-10 21:00:00,52.2,37.4,30.26,South,169,2.0,4.0,57,0.00,,,0.00,meteohub,2013-03-11 04:00:00,
2013-03-10 21:05:00,52.0,37.6,30.27,South,169,2.0,4.0,58,0.00,,,0.00,meteohub,2013-03-11 04:05:00,
2013-03-10 21:10:00,51.8,37.6,30.27,South,169,1.0,4.0,58,0.00,,,0.00,meteohub,2013-03-11 04:10:00,
2013-03-10 21:15:00,51.6,37.4,30.27,South,169,2.0,3.0,58,0.00,,,0.00,meteohub,2013-03-11 04:15:00,
2013-03-10 21:20:00,51.3,37.0,30.27,South,169,2.0,3.0,58,0.00,,,0.00,meteohub,2013-03-11 04:20:00,
2013-03-10 21:25:00,51.1,36.9,30.27,South,169,2.0,2.0,58,0.00,,,0.00,meteohub,2013-03-11 04:25:00,
2013-03-10 21:30:00,50.7,36.5,30.27,South,169,2.0,3.0,58,0.00,,,0.00,meteohub,2013-03-11 04:30:00,
2013-03-10 21:35:00,50.7,36.0,30.27,South,170,2.0,4.0,57,0.00,,,0.00,meteohub,2013-03-11 04:35:00,
2013-03-10 21:40:00,50.9,36.7,30.27,South,169,2.0,4.0,58,0.00,,,0.00,meteohub,2013-03-11 04:40:00,
2013-03-10 21:46:00,50.7,36.0,30.27,South,169,2.0,4.0,57,0.00,,,0.00,meteohub,2013-03-11 04:46:00,
2013-03-10 21:51:00,50.5,36.7,30.27,South,169,1.0,3.0,59,0.00,,,0.00,meteohub,2013-03-11 04:51:00,
2013-03-10 21:56:00,50.4,36.5,30.27,South,169,0.0,3.0,59,0.00,,,0.00,meteohub,2013-03-11 04:56:00,
2013-03-10 22:01:00,50.2,36.9,30.27,South,169,0.0,3.0,60,0.00,,,0.00,meteohub,2013-03-11 05:01:00,
2013-03-10 22:06:00,49.8,36.5,30.27,South,169,0.0,2.0,60,0.00,,,0.00,meteohub,2013-03-11 05:06:00,
2013-03-10 22:11:00,49.5,37.4,30.27,South,169,0.0,0.0,63,0.00,,,0.00,meteohub,2013-03-11 05:11:00,
2013-03-10 22:16:00,48.9,37.2,30.27,South,169,0.0,0.0,64,0.00,,,0.00,meteohub,2013-03-11 05:16:00,
2013-03-10 22:21:00,48.6,37.4,30.27,South,169,0.0,0.0,65,0.00,,,0.00,meteohub,2013-03-11 05:21:00,
2013-03-10 22:26:00,48.0,37.2,30.27,South,169,0.0,0.0,66,0.00,,,0.00,meteohub,2013-03-11 05:26:00,
2013-03-10 22:31:00,47.8,37.0,30.27,South,169,0.0,0.0,66,0.00,,,0.00,meteohub,2013-03-11 05:31:00,
2013-03-10 22:36:00,47.1,36.7,30.27,South,169,1.0,0.0,67,0.00,,,0.00,meteohub,2013-03-11 05:36:00,
2013-03-10 22:41:00,46.6,36.5,30.27,South,169,2.0,2.0,68,0.00,,,0.00,meteohub,2013-03-11 05:41:00,
2013-03-10 22:46:00,46.0,36.5,30.27,South,169,2.0,3.0,69,0.00,,,0.00,meteohub,2013-03-11 05:46:00,
2013-03-10 22:51:00,45.7,36.9,30.27,South,169,0.0,3.0,71,0.00,,,0.00,meteohub,2013-03-11 05:51:00,
2013-03-10 22:56:00,45.5,36.7,30.27,South,169,0.0,3.0,71,0.00,,,0.00,meteohub,2013-03-11 05:56:00,
2013-03-10 23:01:00,45.1,36.3,30.27,South,169,2.0,3.0,71,0.00,,,0.00,meteohub,2013-03-11 06:01:00,
2013-03-10 23:06:00,45.1,36.3,30.27,South,169,2.0,3.0,71,0.00,,,0.00,meteohub,2013-03-11 06:06:00,
2013-03-10 23:12:00,45.0,36.9,30.27,South,169,1.0,3.0,73,0.00,,,0.00,meteohub,2013-03-11 06:12:00,
2013-03-10 23:17:00,44.8,36.3,30.27,South,169,0.0,3.0,72,0.00,,,0.00,meteohub,2013-03-11 06:17:00,
2013-03-10 23:22:00,44.4,36.0,30.27,South,169,2.0,2.0,72,0.00,,,0.00,meteohub,2013-03-11 06:22:00,
2013-03-10 23:27:00,44.4,36.0,30.27,South,169,2.0,3.0,72,0.00,,,0.00,meteohub,2013-03-11 06:27:00,
2013-03-10 23:32:00,44.4,36.3,30.27,South,169,0.0,3.0,73,0.00,,,0.00,meteohub,2013-03-11 06:32:00,
2013-03-10 23:37:00,44.2,36.1,30.27,South,169,0.0,3.0,73,0.00,,,0.00,meteohub,2013-03-11 06:37:00,
2013-03-10 23:42:00,43.9,35.8,30.27,South,169,0.0,3.0,73,0.00,,,0.00,meteohub,2013-03-11 06:42:00,
2013-03-10 23:47:00,43.9,35.8,30.27,South,169,0.0,3.0,73,0.00,,,0.00,meteohub,2013-03-11 06:47:00,
2013-03-10 23:52:00,43.9,35.8,30.27,South,169,0.0,3.0,73,0.00,,,0.00,meteohub,2013-03-11 06:52:00,
2013-03-10 23:57:00,43.9,36.1,30.27,South,169,1.0,3.0,74,0.00,,,0.00,meteohub,2013-03-11 06:57:00,